Starlink 31002

operational
NORAD ID: 58495 Int'l Des: 2023-186 Owner: SPXS Country: US Constellation: starlink
LEOCIRCULAR

Über Starlink 31002

Beschreibung wird geladen...

Live-Position

3D-Globus wird geladen...

Nächste Überflüge

Höhenverlauf

Altitude vs Time

uPlot chart will show altitude changes over time

Zweizeiliger Elementsatz

1 58495U 23186Y 26062.08750288 .00148487 00000-0 53469-2 0 9996
2 58495 42.9985 101.1629 0001739 261.5165 98.5490 15.27276081125042
Epoch: 3. März 2026 • Age: 32 hours

Aktueller Status

Höhe 494.9 km
Geschwindigkeit 7.62 km/s
Subsatellitenpunkt -42.68°S, 99.24°E
Startdatum 3. Dez. 2023
Alter 2.2 years
Typ internet

Technische Details

Klassifizierung Payload
Masse 730.00 kg
Trockenmasse 700.00 kg
Gesamtmasse 730.00 kg
Länge 0.30 m
Durchmesser 4.10 m
Spannweite 29.00 m
Form Box + pan
Hersteller SPXS
Bus-Typ Starlink V2M
Phasenstatus In Orbit
Besitzer/Staat SPXS/US

Große Konstellationen

Loading constellations...